Location: Ferchesar
(52.6477°N, 12.4298°E)
Time: 21:53:23
(UTC+02:00)

A-11 Canister half - Pass Details

Date: 13 March 2021
Orbit: 1525 x 1683 km, 47.3° (Epoch: 11 April)

Event Time Altitude Azimuth Distance (km) Brightness Sun altitude
Exits shadow 04:28:34 26° 250° (WSW) 2,745 9.7 -18.8°
Maximum altitude 04:34:29 65° 178° (S) 1,710 9.1 -18.0°
Drops below altitude 10° 04:43:45 10° 99° (E) 3,722 12.0 -16.6°
Sets 04:46:47 0° 97° (E) 4,693 12.8 -16.2°
